Location: Grandview
(34.8900°N, 117.1058°W)
Time: 18:27:48
(UTC-07:00)

ISS - Pass Details

Date: 10 October 2017
Orbit: 401 x 408 km, 51.6° (Epoch: 21 October)

Event Time Altitude Azimuth Distance (km) Brightness Sun altitude
Rises 19:49:28 0° 326° (NNW) 2,324 0.6 -19.2°
Reaches altitude 10° 19:52:11 10° 351° (N) 1,463 -0.8 -19.8°
Enters shadow 19:53:07 14° 6° (N) 1,271 -1.3 -20.0°
